Regional Weather Roundup
Issued by NWS

Home | Current Version | Previous Version | Graphics & Text | Print | Product List | Glossary On
Versions: 1 2 3 4 5 6 7 8 9 10 11 12 13 14 15 16 17 18 19 20 21 22 23 24 25 26 27 28 29 30 31 32 33 34 35 36 37 38 39 40 41 42 43 44 45 46 47 48 49 50
000
ASUS43 KOAX 211702
RWRNE

WEATHER ROUNDUP FOR NEBRASKA
NATIONAL WEATHER SERVICE OMAHA NE
1200 PM CDT SAT OCT 21 2017

NOTES: SATELLITE DATA IS BEING USED TO AUGMENT CLOUD COVER ABOVE
       12000 FEET.
       "FAIR" INDICATES FEW OR NO CLOUDS BELOW 12,000 FEET WITH NO
       SIGNIFICANT WEATHER AND/OR OBSTRUCTIONS TO VISIBILITY.


NEZ001>004-019>022-054>056-211800-
NEBRASKA PANHANDLE

CITY           SKY/WX    TMP DP  RH WIND       PRES   REMARKS
SCOTTSBLUFF    SUNNY     53  21  28 NW21G30   29.93R
ALLIANCE       SUNNY     52  22  30 NW23G31   29.90R
CHADRON        CLOUDY    53  19  26 NW22G30   29.89R
GORDON         FAIR      48  34  59 W7        29.87R
KIMBALL        SUNNY     49  19  30 NW24G36   29.96R
SIDNEY         SUNNY     52  21  29 NW24G32   29.94R
$$

NEZ057>060-069>072-079>082-211800-
SOUTHWEST NEBRASKA

CITY           SKY/WX    TMP DP  RH WIND       PRES   REMARKS
NORTH PLATTE   LGT RAIN  47  42  83 NW14      29.85F
IMPERIAL       CLOUDY    52  36  54 NW17G24   29.90R
LEXINGTON      PTSUNNY   56  40  54 NW24G38   29.82R
MCCOOK         CLOUDY    55  38  52 NW23G41   29.86R
OGALLALA       MOSUNNY   55  32  41 NW26      29.89R
$$

NEZ005>010-023>029-035>040-094-211800-
NORTH CENTRAL NEBRASKA

CITY           SKY/WX    TMP DP  RH WIND       PRES   REMARKS
VALENTINE      LGT RAIN  48  39  71 NW15G24   29.84R
AINSWORTH      LGT RAIN  45  40  84 NW18G28   29.83R
BROKEN BOW     CLOUDY    51  37  58 NW29G40   29.83R
O`NEILL        CLOUDY    53  40  61 NW26G38   29.75R
ORD            CLOUDY    54  39  57 NW30G44   29.76R
THEDFORD       RAIN      45  42  91 NW15      29.88R
$$

NEZ041-046>049-061>064-073>077-083>087-211800-
SOUTH CENTRAL NEBRASKA

CITY           SKY/WX    TMP DP  RH WIND       PRES   REMARKS
GRAND ISLAND   CLOUDY    60  43  53 NW31G39   29.72R
AURORA         CLOUDY    63  45  53 NW24G33   29.70R
HASTINGS       MOSUNNY   62  41  46 NW29G43   29.72R
HEBRON         CLOUDY    68  49  50 SW13G24   29.67R
HOLDREGE       CLOUDY    62  44  52 NW23G39   29.78R
KEARNEY        CLOUDY    59  41  51 NW31G40   29.76R
YORK           CLOUDY    68  55  64 SW16G24   29.65R
$$

NEZ011>018-030>034-042>045-211800-
NORTHEAST NEBRASKA

CITY           SKY/WX    TMP DP  RH WIND       PRES   REMARKS
NORFOLK        CLOUDY    59  48  67 NW21G29   29.65R
ALBION         CLOUDY    58  43  57 NW28      29.69R
BLAIR          CLOUDY    71  63  74 S20       29.65S
COLUMBUS       CLOUDY    70  60  70 SW10      29.63R
FREMONT        CLOUDY    72  61  68 S15G23    29.64R
TEKAMAH        CLOUDY    72  61  68 S14G21    29.63S
WAYNE          CLOUDY    64  49  58 W18G25    29.63R
$$

NEZ050>053-065>068-078-088>093-211800-
SOUTHEAST NEBRASKA

CITY           SKY/WX    TMP DP  RH WIND       PRES   REMARKS
LINCOLN        CLOUDY    72  63  73 S20       29.65R
OMAHA EPPLEY   CLOUDY    72  62  71 S23G36    29.65S
BEATRICE       CLOUDY    73  63  69 S23G29    29.67S
FALLS CITY     CLOUDY    71  62  73 S14G23    29.74R
NEBRASKA CITY  PTSUNNY   73  65  74 S23G36    29.70S
PLATTSMOUTH    CLOUDY    72  63  73 S23G30    29.68S
$$

NEZ044-045-051>053-067-211800-
OMAHA AREA

CITY           SKY/WX    TMP DP  RH WIND       PRES   REMARKS
OMAHA EPPLEY   CLOUDY    72  62  71 S23G36    29.65S
BLAIR          CLOUDY    71  63  74 S20       29.65S
FREMONT        CLOUDY    72  61  68 S15G23    29.64R
MILLARD        CLOUDY    73  64  72 S14G22    29.66S
OFFUTT AFB     MOSUNNY   72  62  69 S18G30    29.66S
PLATTSMOUTH    CLOUDY    72  63  73 S23G30    29.68S
WAHOO          CLOUDY    73  62  68 S18G26    29.64R
$$




USA.gov is the U.S. government's official web portal to all federal, state and local government web resources and services.